View from above orbital plane
|
View from above satellite
|
Ground track
|
The orbit data is extracted from the following two-line orbital elements,
1 5679U 71110B 21103.14462951 -.00000024 00000-0 23758-4 0 9992
2 5679 69.9998 11.9951 0012099 4.5150 355.6057 13.85352104107428
Epoch (UTC): | 13 April 2021 03:28:15 |
Eccentricity: | 0.0012099 |
inclination: | 69.9998° |
perigee height: | 936 km |
apogee height: | 954 km |
right ascension of ascending node: | 11.9951° |
argument of perigee: | 4.5150° |
revolutions per day: | 13.85352104 |
mean anomaly at epoch: | 355.6057° |
orbit number at epoch: | 10742 |
The dashed part of the orbit path shows where the satellite is in the earth's shadow,
|
|